KB4SYV Weather Reports


Display with metric or nautical units.
time (UTC)temp
F
wind
direction
speed
MPH
gust
MPH
rain 1hr
in
rain 24hr
in
rain mn
in
humidity
%
barometer
mb
20260505124024 55 32 0.0 0.0 0.00 0.00 0.00 88 1038.8
20260505123503 54 32 0.0 0.0 0.00 0.00 0.00 88 1038.8
20260505123002 53 32 0.0 0.0 0.00 0.00 0.00 89 1038.9
20260505122503 53 32 0.0 0.0 0.00 0.00 0.00 90 1038.9
20260505122002 52 32 0.0 0.0 0.00 0.00 0.00 91 1038.8
20260505121503 52 32 0.0 0.0 0.00 0.00 0.00 92 1038.7
20260505121024 51 32 0.0 0.0 0.00 0.00 0.00 93 1038.8
20260505120524 50 32 0.0 0.0 0.00 0.00 0.00 95 1038.7
20260505120003 50 32 0.0 0.0 0.00 0.00 0.00 95 1038.6
20260505115503 50 32 0.0 0.0 0.00 0.00 0.00 95 1038.5
20260505115003 49 32 0.0 0.0 0.00 0.00 0.00 95 1038.5
20260505114503 49 32 0.0 0.0 0.00 0.00 0.00 95 1038.6
20260505114024 49 32 0.0 0.0 0.00 0.00 0.00 95 1038.5
20260505113502 48 32 0.0 0.0 0.00 0.00 0.00 95 1038.3
20260505113003 48 32 0.0 0.0 0.00 0.00 0.00 95 1038.3
20260505112503 48 32 0.0 0.0 0.00 0.00 0.00 95 1038.3
20260505112002 48 32 0.0 0.0 0.00 0.00 0.00 95 1038.1
20260505111503 48 32 0.0 0.0 0.00 0.00 0.00 95 1038.0
20260505111002 48 32 0.0 0.0 0.00 0.00 0.00 95 1038.0
20260505102003 48 32 0.0 0.0 0.00 0.00 0.00 94 1037.7
20260505101524 48 32 0.0 0.0 0.00 0.00 0.00 94 1037.8
20260505101024 48 32 0.0 0.0 0.00 0.00 0.00 94 1037.8
20260505100502 48 32 0.0 0.0 0.00 0.00 0.00 93 1037.8
20260505100003 49 32 0.0 0.0 0.00 0.00 0.00 93 1037.8
20260505095524 49 32 0.0 2.0 0.00 0.00 0.00 93 1037.9
20260505095024 49 32 0.0 2.0 0.00 0.00 0.00 93 1038.0
20260505094503 49 60 0.0 1.0 0.00 0.00 0.00 93 1037.9
20260505094003 49 164 0.0 0.0 0.00 0.00 0.00 93 1037.9
20260505093002 49 164 0.0 0.0 0.00 0.00 0.00 92 1037.9
20260505092503 49 164 0.0 0.0 0.00 0.00 0.00 92 1037.8
20260505092002 49 164 0.0 0.0 0.00 0.00 0.00 92 1037.8
20260505091503 49 164 0.0 0.0 0.00 0.00 0.00 92 1037.8
20260505091002 49 164 0.0 0.0 0.00 0.00 0.00 92 1037.9
20260505090503 50 164 0.0 2.0 0.00 0.00 0.00 92 1037.8
20260505090024 50 164 0.0 2.0 0.00 0.00 0.00 92 1037.8
20260505085503 50 42 0.0 2.0 0.00 0.00 0.00 92 1038.0
20260505085003 50 326 1.0 3.0 0.00 0.00 0.00 92 1037.9
20260505084502 50 229 0.0 3.0 0.00 0.00 0.00 92 1038.1
20260505084003 50 63 0.0 3.0 0.00 0.00 0.00 92 1038.1
20260505083502 50 33 0.0 0.0 0.00 0.00 0.00 91 1038.0
20260505083003 50 33 0.0 0.0 0.00 0.00 0.00 91 1038.0
20260505082503 50 33 0.0 0.0 0.00 0.00 0.00 91 1038.0
20260505082003 50 33 0.0 0.0 0.00 0.00 0.00 91 1037.9
20260505081503 50 33 0.0 0.0 0.00 0.00 0.00 91 1037.9
20260505081003 50 33 0.0 0.0 0.00 0.00 0.00 90 1038.1
20260505080524 50 33 0.0 0.0 0.00 0.00 0.00 90 1038.0
20260505080002 50 33 0.0 0.0 0.00 0.00 0.00 90 1038.0
20260505075503 51 33 0.0 0.0 0.00 0.00 0.00 90 1037.9
20260505075002 51 33 0.0 0.0 0.00 0.00 0.00 89 1037.9
20260505074503 51 33 0.0 0.0 0.00 0.00 0.00 89 1037.9
20260505074002 51 33 0.0 0.0 0.00 0.00 0.00 89 1037.9
20260505073503 51 33 0.0 0.0 0.00 0.00 0.00 89 1038.0
20260505073002 51 33 0.0 0.0 0.00 0.00 0.00 89 1037.9
20260505072502 51 33 0.0 0.0 0.00 0.00 0.00 89 1038.0
20260505072002 51 33 0.0 0.0 0.00 0.00 0.00 88 1038.0
20260505071503 51 33 0.0 0.0 0.00 0.00 0.00 88 1038.0
20260505071002 51 33 0.0 0.0 0.00 0.00 0.00 88 1037.9
20260505070523 52 33 0.0 0.0 0.00 0.00 0.00 88 1037.9
20260505070003 52 33 0.0 0.0 0.00 0.00 0.00 87 1037.9
20260505065502 52 33 0.0 2.0 0.00 0.00 0.00 87 1037.9
20260505065024 52 33 0.0 2.0 0.00 0.00 0.00 86 1037.9
20260505064502 52 240 1.0 2.0 0.00 0.00 0.00 86 1037.8
20260505064024 52 84 0.0 0.0 0.00 0.00 0.00 86 1037.8
20260505063502 53 84 0.0 2.0 0.00 0.00 0.00 86 1037.9
20260505063002 53 100 0.0 2.0 0.00 0.00 0.00 85 1037.9
20260505062502 53 264 0.0 2.0 0.00 0.00 0.00 85 1037.9
20260505062002 53 263 0.0 3.0 0.00 0.00 0.00 85 1037.9
20260505061503 53 262 1.0 3.0 0.00 0.00 0.00 84 1038.0
20260505061002 53 36 0.0 0.0 0.00 0.00 0.00 84 1037.9
20260505060503 54 36 0.0 0.0 0.00 0.00 0.00 83 1038.0
20260505060003 54 36 0.0 0.0 0.00 0.00 0.00 82 1038.1
20260505055502 54 36 0.0 1.0 0.00 0.00 0.00 81 1038.0
20260505055024 55 36 0.0 2.0 0.00 0.00 0.00 81 1038.1
20260505054503 55 25 0.0 2.0 0.00 0.00 0.00 80 1038.1
20260505054002 55 57 0.0 0.0 0.00 0.00 0.00 79 1038.0
20260505053503 55 57 0.0 0.0 0.00 0.00 0.00 78 1038.0
20260505053023 56 57 0.0 0.0 0.00 0.00 0.00 78 1038.0
20260505052502 56 57 0.0 1.0 0.00 0.00 0.00 77 1038.1
20260505052003 56 66 0.0 1.0 0.00 0.00 0.00 77 1038.1
20260505051503 56 46 0.0 3.0 0.00 0.00 0.00 76 1038.1
20260505051003 57 34 0.0 3.0 0.00 0.00 0.00 75 1038.0
20260505050502 57 262 0.0 2.0 0.00 0.00 0.00 73 1038.0
20260505041503 65 9 0.0 0.0 0.00 0.00 0.00 56 1037.7
20260505041002 65 9 0.0 3.0 0.00 0.00 0.00 55 1037.7
20260505040503 66 354 0.0 3.0 0.00 0.00 0.00 53 1037.6
20260505040003 66 312 0.0 3.0 0.00 0.00 0.00 53 1037.6
20260505035502 67 295 0.0 6.0 0.00 0.00 0.00 51 1037.7
20260505035002 67 311 2.0 8.0 0.00 0.00 0.00 51 1037.8
20260505034503 66 318 4.0 9.0 0.00 0.00 0.00 50 1037.7
20260505034024 65 305 4.0 9.0 0.00 0.00 0.00 51 1037.9
20260505033502 64 296 2.0 6.0 0.00 0.00 0.00 58 1037.9
20260505033024 62 219 0.0 6.0 0.00 0.00 0.00 60 1037.9
20260505032503 61 304 3.0 6.0 0.00 0.00 0.00 64 1037.9
20260505032002 60 255 0.0 6.0 0.00 0.00 0.00 68 1037.9
20260505031524 59 14 1.0 6.0 0.00 0.00 0.00 70 1037.8
20260505031002 58 266 0.0 6.0 0.00 0.00 0.00 72 1037.8
20260505030502 57 8 0.0 6.0 0.00 0.00 0.00 75 1037.8
20260505030003 57 154 1.0 6.0 0.00 0.00 0.00 76 1037.8
20260505025502 57 40 0.0 2.0 0.00 0.00 0.00 76 1037.8
20260505025003 57 250 0.0 2.0 0.00 0.00 0.00 76 1037.8
20260505024502 57 234 0.0 0.0 0.00 0.00 0.00 76 1037.7
20260505024003 58 234 0.0 0.0 0.00 0.00 0.00 75 1037.7
20260505023502 58 234 0.0 0.0 0.00 0.00 0.00 74 1037.8
20260505023003 58 234 0.0 0.0 0.00 0.00 0.00 74 1037.7
20260505022502 59 234 0.0 0.0 0.00 0.00 0.00 73 1037.7
20260505022003 59 234 0.0 0.0 0.00 0.00 0.00 73 1037.7
20260505021025 59 234 0.0 0.0 0.00 0.00 0.00 72 1037.6
20260505020503 59 234 0.0 0.0 0.00 0.00 0.00 71 1037.4
20260505020002 60 234 0.0 0.0 0.00 0.00 0.00 71 1037.4
20260505015502 60 234 0.0 0.0 0.00 0.00 0.00 71 1037.4
20260505015002 60 234 0.0 0.0 0.00 0.00 0.00 71 1037.3
20260505014524 60 234 0.0 0.0 0.00 0.00 0.00 70 1037.2
20260505014003 61 234 0.0 0.0 0.00 0.00 0.00 70 1037.3
20260505013503 61 234 0.0 0.0 0.00 0.00 0.00 69 1037.3
20260505013002 61 234 0.0 0.0 0.00 0.00 0.00 69 1037.2
20260505012503 61 234 0.0 0.0 0.00 0.00 0.00 68 1037.2
20260505012003 62 234 0.0 0.0 0.00 0.00 0.00 67 1037.1
20260505011503 62 234 0.0 0.0 0.00 0.00 0.00 67 1037.1
20260505011002 62 234 0.0 0.0 0.00 0.00 0.00 66 1037.0
20260505010503 63 234 0.0 0.0 0.00 0.00 0.00 65 1037.0
20260505010003 63 234 0.0 0.0 0.00 0.00 0.00 64 1037.0
20260505005502 64 234 0.0 0.0 0.00 0.00 0.00 63 1037.0
20260505005004 65 234 0.0 0.0 0.00 0.00 0.00 62 1036.9
20260505004502 65 234 0.0 0.0 0.00 0.00 0.00 61 1036.8
20260505004003 66 234 0.0 0.0 0.00 0.00 0.00 59 1036.8
20260505003502 66 234 0.0 0.0 0.00 0.00 0.00 59 1036.8
20260505003003 66 234 0.0 0.0 0.00 0.00 0.00 58 1036.8
20260505002502 67 234 0.0 0.0 0.00 0.00 0.00 58 1036.7
20260505002003 67 234 0.0 0.0 0.00 0.00 0.00 57 1036.7
20260505001502 68 234 0.0 0.0 0.00 0.00 0.00 56 1036.6
20260505001003 69 234 0.0 0.0 0.00 0.00 0.00 55 1036.7
20260505000503 69 234 0.0 0.0 0.00 0.00 0.00 54 1036.6
20260504235544 71 234 0.0 0.0 0.00 0.00 0.00 50 1036.5
20260504235003 72 234 0.0 0.0 0.00 0.00 0.00 48 1036.5
20260504234503 73 234 0.0 0.0 0.00 0.00 0.00 47 1036.4
20260504234003 73 234 0.0 0.0 0.00 0.00 0.00 44 1036.4
20260504233503 73 234 0.0 4.0 0.00 0.00 0.00 44 1036.4
20260504233023 74 234 0.0 4.0 0.00 0.00 0.00 43 1036.5
20260504232502 74 322 0.0 6.0 0.00 0.00 0.00 45 1036.4
20260504232002 74 340 2.0 6.0 0.00 0.00 0.00 40 1036.5
20260504231524 74 263 1.0 4.0 0.00 0.00 0.00 43 1036.5
20260504231003 74 261 1.0 4.0 0.00 0.00 0.00 42 1036.4
20260504230502 74 310 0.0 4.0 0.00 0.00 0.00 43 1036.4
20260504230003 74 272 1.0 5.0 0.00 0.00 0.00 41 1036.3
20260504225502 74 274 1.0 5.0 0.00 0.00 0.00 42 1036.4
20260504225003 75 242 1.0 5.0 0.00 0.00 0.00 43 1036.4
20260504224502 75 276 2.0 9.0 0.00 0.00 0.00 42 1036.4
20260504224003 75 323 2.0 9.0 0.00 0.00 0.00 42 1036.4
20260504223523 75 189 1.0 4.0 0.00 0.00 0.00 46 1036.3
20260504223003 75 306 1.0 4.0 0.00 0.00 0.00 43 1036.2
20260504222503 75 271 1.0 4.0 0.00 0.00 0.00 42 1036.3
20260504222002 75 130 0.0 3.0 0.00 0.00 0.00 42 1036.2
20260504221503 75 130 0.0 5.0 0.00 0.00 0.00 42 1036.3
20260504221002 76 319 1.0 5.0 0.00 0.00 0.00 42 1036.4
20260504220524 76 298 0.0 3.0 0.00 0.00 0.00 43 1036.4
20260504220002 76 323 0.0 4.0 0.00 0.00 0.00 41 1036.3
20260504215503 76 323 1.0 6.0 0.00 0.00 0.00 40 1036.3
20260504215002 76 356 2.0 6.0 0.00 0.00 0.00 40 1036.3
20260504214503 76 337 0.0 4.0 0.00 0.00 0.00 41 1036.3
20260504214003 76 120 1.0 4.0 0.00 0.00 0.00 42 1036.3
20260504213504 76 253 1.0 6.0 0.00 0.00 0.00 39 1036.4
20260504213003 76 237 1.0 6.0 0.00 0.00 0.00 41 1036.4
20260504212503 76 322 1.0 3.0 0.00 0.00 0.00 41 1036.3
20260504212003 76 285 0.0 3.0 0.00 0.00 0.00 40 1036.3
20260504211502 76 330 1.0 3.0 0.00 0.00 0.00 41 1036.3
20260504211003 75 224 1.0 4.0 0.00 0.00 0.00 42 1036.3
20260504210502 75 103 1.0 4.0 0.00 0.00 0.00 42 1036.3
20260504210003 75 278 2.0 4.0 0.00 0.00 0.00 41 1036.4
20260504205502 74 284 1.0 4.0 0.00 0.00 0.00 43 1036.5
20260504205003 74 268 2.0 5.0 0.00 0.00 0.00 42 1036.6
20260504204503 74 257 1.0 5.0 0.00 0.00 0.00 44 1036.7
20260504204003 75 310 2.0 5.0 0.00 0.00 0.00 44 1036.7
20260504203504 75 268 1.0 5.0 0.00 0.00 0.00 43 1036.6
20260504203023 75 274 2.0 5.0 0.00 0.00 0.00 43 1036.6
20260504202503 76 301 1.0 5.0 0.00 0.00 0.00 43 1036.7
20260504202002 76 262 1.0 4.0 0.00 0.00 0.00 42 1036.7
20260504201503 76 256 1.0 5.0 0.00 0.00 0.00 41 1036.8
20260504201002 76 347 1.0 6.0 0.00 0.00 0.00 42 1036.8
20260504200503 76 310 1.0 6.0 0.00 0.00 0.00 41 1036.9
20260504200002 77 120 0.0 3.0 0.00 0.00 0.00 42 1037.1
20260504195524 77 100 0.0 3.0 0.00 0.00 0.00 43 1037.1
20260504195002 76 114 0.0 5.0 0.00 0.00 0.00 40 1037.2
20260504194502 76 281 3.0 5.0 0.00 0.00 0.00 39 1037.3
20260504194002 76 196 1.0 7.0 0.00 0.00 0.00 43 1037.3
20260504193523 76 4 2.0 7.0 0.00 0.00 0.00 42 1037.4
20260504193003 76 27 2.0 8.0 0.00 0.00 0.00 41 1037.6
20260504192502 75 20 2.0 8.0 0.00 0.00 0.00 42 1037.6
20260504192003 75 349 1.0 7.0 0.00 0.00 0.00 42 1037.8
20260504191502 76 324 3.0 7.0 0.00 0.00 0.00 40 1037.9
20260504191023 75 311 3.0 5.0 0.00 0.00 0.00 41 1038.0
20260504190502 75 346 2.0 6.0 0.00 0.00 0.00 41 1038.0
20260504190004 75 294 1.0 7.0 0.00 0.00 0.00 40 1038.1
20260504185502 75 326 4.0 7.0 0.00 0.00 0.00 41 1038.1
20260504185003 75 270 1.0 6.0 0.00 0.00 0.00 42 1038.2
20260504184502 75 237 1.0 7.0 0.00 0.00 0.00 43 1038.3
20260504184003 75 245 2.0 7.0 0.00 0.00 0.00 42 1038.5
20260504183502 75 316 2.0 6.0 0.00 0.00 0.00 45 1038.4
20260504183003 74 220 0.0 4.0 0.00 0.00 0.00 46 1038.5
20260504182502 74 121 0.0 4.0 0.00 0.00 0.00 46 1038.6
20260504182003 74 152 2.0 5.0 0.00 0.00 0.00 46 1038.7
20260504181502 74 258 3.0 5.0 0.00 0.00 0.00 44 1038.7
20260504181002 74 238 0.0 5.0 0.00 0.00 0.00 46 1038.8
20260504180523 73 105 1.0 7.0 0.00 0.00 0.00 46 1038.9
20260504180003 73 316 1.0 7.0 0.00 0.00 0.00 44 1039.0
20260504175502 73 311 3.0 7.0 0.00 0.00 0.00 45 1039.0
20260504175003 73 212 2.0 4.0 0.00 0.00 0.00 46 1039.1
20260504174502 73 359 0.0 4.0 0.00 0.00 0.00 47 1039.2
20260504174002 73 236 2.0 7.0 0.00 0.00 0.00 46 1039.4
20260504173503 73 353 3.0 7.0 0.00 0.00 0.00 46 1039.4
20260504173002 73 275 0.0 7.0 0.00 0.00 0.00 45 1039.4
20260504172503 72 11 3.0 7.0 0.00 0.00 0.00 46 1039.6
20260504172002 72 341 1.0 4.0 0.00 0.00 0.00 46 1039.7
20260504171503 72 312 2.0 5.0 0.00 0.00 0.00 45 1039.8
20260504171002 72 293 3.0 5.0 0.00 0.00 0.00 45 1040.0
20260504170502 72 142 1.0 6.0 0.00 0.00 0.00 45 1040.1
20260504151002 68 312 3.0 8.0 0.00 0.00 0.00 48 1041.4
20260504150503 68 0 4.0 11.0 0.00 0.00 0.00 49 1041.6
20260504141003 62 122 1.0 4.0 0.00 0.00 0.00 66 1042.0
20260504140503 62 111 0.0 3.0 0.00 0.00 0.00 66 1042.0
20260504130503 55 313 0.0 0.0 0.00 0.00 0.00 83 1041.9